Location: Dehesa de la Cepeda
(40.6574°N, 4.3013°W)
Time: 05:28:27
(UTC+00:00)

Vanguard 3 - Visible Passes

Search period start: 01 August 2021 00:00
Search period end: 11 August 2021 00:00
Orbit: 508 x 3261 km, 33.4° (Epoch: 31 July)

Date Brightness Start Highest point End Pass type
(mag) Time Alt. Az. Time Alt. Az. Time Alt. Az.
01 Aug 11.0 02:06:33 10° W 02:09:27 13° WSW 02:09:27 13° WSW visible
01 Aug 10.1 20:12:49 10° W 20:30:12 69° S 20:49:30 10° ESE visible
01 Aug 10.0 22:27:47 10° W 22:46:31 55° SSW 22:54:01 39° SSE visible
02 Aug 10.5 00:45:45 10° W 00:58:29 27° SW 00:58:29 27° SW visible
02 Aug 10.1 21:11:27 10° W 21:29:35 64° SSW 21:43:05 24° SE visible
02 Aug 10.1 23:27:28 10° W 23:44:56 41° SW 23:47:34 39° SSW visible
03 Aug 11.1 01:50:05 10° WSW 01:52:01 12° WSW 01:52:01 12° WSW visible
03 Aug 10.1 19:55:54 10° W 20:12:24 68° S 20:32:02 10° ESE visible
03 Aug 10.1 22:10:29 10° W 22:28:37 52° SSW 22:36:41 37° SSE visible
04 Aug 10.6 00:28:29 10° W 00:41:09 25° SW 00:41:09 25° SW visible
04 Aug 10.1 20:54:25 10° W 21:11:43 61° SSW 21:25:51 23° SE visible
04 Aug 10.3 23:10:10 10° W 23:27:01 38° SW 23:30:20 36° SSW visible
05 Aug 11.2 01:34:28 10° WSW 01:34:48 10° WSW 01:34:48 10° WSW visible
05 Aug 10.1 19:39:05 10° W 19:54:41 67° S 20:14:26 10° ESE visible
05 Aug 10.3 21:53:20 10° W 22:10:42 49° SSW 22:19:33 33° SSE visible
06 Aug 10.8 00:11:27 10° W 00:24:02 23° SW 00:24:02 23° SW visible
06 Aug 10.2 20:37:29 10° W 20:53:54 59° SSW 21:08:50 21° SE visible
06 Aug 10.4 22:53:03 10° W 23:09:05 35° SW 23:13:18 32° SSW visible
07 Aug 10.1 19:22:24 10° W 19:37:01 65° S 19:56:41 10° ESE visible
07 Aug 10.4 21:36:20 10° W 21:52:47 46° SSW 22:02:39 29° SSE visible
07 Aug 10.9 23:54:45 10° W 00:06:52 20° SW 00:07:08 20° SW visible
08 Aug 10.2 20:20:41 10° W 20:36:08 55° SSW 20:52:02 18° SE visible
08 Aug 10.6 22:36:08 10° W 22:51:10 31° SW 22:56:32 28° SSW visible
09 Aug 10.5 21:19:31 10° W 21:34:57 42° SSW 21:45:59 25° SSE visible
09 Aug 11.0 23:38:29 10° W 23:49:03 17° SW 23:50:29 17° SW visible
10 Aug 10.3 20:04:02 10° W 20:18:25 52° SSW 20:35:29 14° SE visible
10 Aug 10.7 22:19:28 10° W 22:33:19 28° SW 22:40:00 23° SSW visible
